TimeAKDT,TemperatureF,Dew PointF,Humidity,Sea Level PressureIn,VisibilityMPH,Wind Direction,Wind SpeedMPH,Gust SpeedMPH,PrecipitationIn,Events,Conditions,WindDirDegrees,DateUTC
12:53 AM,-7.1,-13.0,75,30.19,10.0,Calm,Calm,-,N/A,,Scattered Clouds,0,2013-03-18 08:53:00
1:53 AM,-9.0,-14.1,79,30.18,10.0,Calm,Calm,-,N/A,,Scattered Clouds,0,2013-03-18 09:53:00
2:53 AM,-6.0,-11.9,75,30.16,10.0,Calm,Calm,-,N/A,,Scattered Clouds,0,2013-03-18 10:53:00
3:53 AM,-6.0,-13.0,72,30.15,10.0,Calm,Calm,-,N/A,,Scattered Clouds,0,2013-03-18 11:53:00
4:53 AM,-5.1,-11.0,76,30.14,10.0,Calm,Calm,-,N/A,,Mostly Cloudy,0,2013-03-18 12:53:00
5:53 AM,-6.0,-11.9,75,30.12,10.0,Calm,Calm,-,N/A,,Mostly Cloudy,0,2013-03-18 13:53:00
6:53 AM,-8.0,-14.1,75,30.12,10.0,Calm,Calm,-,N/A,,Mostly Cloudy,0,2013-03-18 14:53:00
7:53 AM,-9.9,-16.1,74,30.11,10.0,Calm,Calm,-,N/A,,Scattered Clouds,0,2013-03-18 15:53:00
8:53 AM,-9.9,-14.1,82,30.11,10.0,Calm,Calm,-,N/A,,Mostly Cloudy,0,2013-03-18 16:53:00
9:53 AM,-8.0,-14.1,75,30.10,10.0,NE,3.5,-,N/A,,Scattered Clouds,50,2013-03-18 17:53:00
10:53 AM,1.0,-6.0,72,30.10,10.0,East,3.5,-,N/A,,Scattered Clouds,80,2013-03-18 18:53:00
11:53 AM,5.0,-5.1,63,30.08,10.0,Calm,Calm,-,N/A,,Scattered Clouds,0,2013-03-18 19:53:00
12:53 PM,10.0,-4.0,53,30.07,10.0,Calm,Calm,-,N/A,,Scattered Clouds,0,2013-03-18 20:53:00
1:53 PM,12.9,-4.0,47,30.07,10.0,Calm,Calm,-,N/A,,Scattered Clouds,0,2013-03-18 21:53:00
2:53 PM,12.9,-4.0,47,30.06,10.0,South,3.5,-,N/A,,Scattered Clouds,170,2013-03-18 22:53:00
3:53 PM,15.1,-2.0,47,30.05,10.0,South,3.5,-,N/A,,Scattered Clouds,170,2013-03-18 23:53:00
4:53 PM,17.1,-2.0,43,30.04,10.0,South,4.6,-,N/A,,Mostly Cloudy,170,2013-03-19 00:53:00
5:53 PM,17.1,-2.0,43,30.04,10.0,SSW,4.6,-,N/A,,Scattered Clouds,200,2013-03-19 01:53:00
6:53 PM,15.1,-2.0,47,30.04,10.0,South,5.8,-,N/A,,Partly Cloudy,190,2013-03-19 02:53:00
7:53 PM,14.0,-2.9,47,30.05,10.0,SSW,5.8,-,N/A,,Partly Cloudy,200,2013-03-19 03:53:00
8:53 PM,3.9,-7.1,60,30.06,10.0,Calm,Calm,-,N/A,,Partly Cloudy,0,2013-03-19 04:53:00
9:53 PM,1.9,-7.1,66,30.06,10.0,ENE,3.5,-,N/A,,Partly Cloudy,70,2013-03-19 05:53:00
10:53 PM,9.0,-8.0,46,30.07,10.0,NNW,8.1,-,N/A,,Partly Cloudy,330,2013-03-19 06:53:00
11:53 PM,8.1,-8.0,48,30.07,10.0,North,9.2,-,N/A,,Partly Cloudy,350,2013-03-19 07:53:00